CAL528 ZGSZ-RCTP

Flight info

Callsign CAL528
Flight time 1h 12m
Altitude 29100
Route GUBLO R200 BEBEM/N0515F292 R200 OLDID/N0518F290 R200 EXTRA M750 TONGA TONGA1A
Aircraft B77W/H-SDE1E2E3FGHIJ2J3J4J5M1RWXY/LB1D1

Departure

Time 2026-04-24 23:48
Airport Shenzhen Bao'an International Airport (ZGSZ)

Arrival

Time 2026-04-25 01:01
Airport Taiwan Taoyuan International Airport (RCTP)
Time Latitude Longitude Altitude Speed Heading
2026-04-24 23:15 22.62910 113.81171 28 ft 0 kts 263°
2026-04-24 23:39 22.62911 113.81180 28 ft 2 kts 263°
2026-04-24 23:39 22.62913 113.81196 28 ft 2 kts 263°
2026-04-24 23:39 22.62915 113.81212 28 ft 2 kts 263°
2026-04-24 23:39 22.62917 113.81229 28 ft 2 kts 262°
2026-04-24 23:40 22.62921 113.81244 28 ft 2 kts 239°
2026-04-24 23:40 22.62930 113.81256 28 ft 2 kts 217°
2026-04-24 23:40 22.62943 113.81265 28 ft 2 kts 198°
2026-04-24 23:40 22.62958 113.81267 28 ft 2 kts 177°
2026-04-24 23:41 22.62973 113.81264 28 ft 2 kts 156°
2026-04-24 23:41 22.62986 113.81256 28 ft 2 kts 150°
2026-04-24 23:41 22.62998 113.81249 28 ft 1 kts 153°
2026-04-24 23:41 22.63001 113.81248 28 ft 0 kts 153°
2026-04-24 23:43 22.63000 113.81248 28 ft 0 kts 153°
2026-04-24 23:43 22.62981 113.81258 28 ft 6 kts 153°
2026-04-24 23:43 22.62979 113.81260 28 ft 6 kts 153°
2026-04-24 23:44 22.62977 113.81261 28 ft 6 kts 153°
2026-04-24 23:44 22.62975 113.81262 28 ft 6 kts 153°
2026-04-24 23:44 22.62973 113.81263 28 ft 6 kts 153°
2026-04-24 23:44 22.62971 113.81264 28 ft 6 kts 153°
2026-04-24 23:45 22.62927 113.81288 28 ft 8 kts 153°
2026-04-24 23:45 22.62862 113.81323 28 ft 11 kts 153°
2026-04-24 23:45 22.62778 113.81370 28 ft 14 kts 153°
2026-04-24 23:45 22.62684 113.81421 28 ft 14 kts 153°
2026-04-24 23:46 22.62594 113.81470 28 ft 13 kts 153°
2026-04-24 23:46 22.62510 113.81516 28 ft 13 kts 153°
2026-04-24 23:46 22.62461 113.81567 28 ft 9 kts 93°
2026-04-24 23:46 22.62488 113.81641 28 ft 11 kts 61°
2026-04-24 23:47 22.62525 113.81718 28 ft 11 kts 63°
2026-04-24 23:47 22.62563 113.81789 28 ft 8 kts 37°
2026-04-24 23:47 22.62614 113.81785 28 ft 6 kts 333°
2026-04-24 23:47 22.62727 113.81722 28 ft 48 kts 333°
2026-04-24 23:48 22.63265 113.81426 28 ft 123 kts 333°
2026-04-24 23:48 22.64212 113.80913 244 ft 165 kts 335°
2026-04-24 23:48 22.65245 113.80347 1009 ft 171 kts 333°
2026-04-24 23:48 22.66316 113.79733 1543 ft 178 kts 336°
2026-04-24 23:49 22.67505 113.79101 1810 ft 199 kts 335°
2026-04-24 23:49 22.68844 113.78369 2108 ft 221 kts 335°
2026-04-24 23:49 22.70282 113.77580 2498 ft 242 kts 335°
2026-04-24 23:49 22.71945 113.77003 2942 ft 257 kts 357°
2026-04-24 23:50 22.73748 113.77321 3728 ft 260 kts 24°
2026-04-24 23:50 22.75244 113.78515 4466 ft 266 kts 50°
2026-04-24 23:50 22.76240 113.80261 5154 ft 274 kts 62°
2026-04-24 23:50 22.77111 113.82131 5895 ft 279 kts 62°
2026-04-24 23:51 22.78017 113.84071 6615 ft 284 kts 61°
2026-04-24 23:51 22.78940 113.86021 7355 ft 288 kts 61°
2026-04-24 23:51 22.79786 113.88026 8074 ft 293 kts 73°
2026-04-24 23:51 22.79896 113.90263 8688 ft 300 kts 100°
2026-04-24 23:52 22.79074 113.92424 9336 ft 304 kts 124°
2026-04-24 23:52 22.77766 113.94311 10061 ft 306 kts 129°
2026-04-24 23:52 22.76384 113.96163 10511 ft 320 kts 129°
2026-04-24 23:52 22.74953 113.98091 10868 ft 336 kts 129°
2026-04-24 23:53 22.73454 114.00143 11260 ft 353 kts 126°
2026-04-24 23:53 22.72179 114.02580 11662 ft 369 kts 111°
2026-04-24 23:53 22.71482 114.05314 12107 ft 382 kts 96°
2026-04-24 23:53 22.71434 114.08247 12882 ft 384 kts 83°
2026-04-24 23:54 22.71740 114.11181 13781 ft 386 kts 81°
2026-04-24 23:54 22.72065 114.14099 14609 ft 392 kts 81°
2026-04-24 23:54 22.72395 114.17110 15386 ft 401 kts 81°
2026-04-24 23:54 22.72722 114.20162 16252 ft 407 kts 81°
2026-04-24 23:55 22.73052 114.23280 17094 ft 413 kts 81°
2026-04-24 23:55 22.73385 114.26447 17855 ft 420 kts 81°
2026-04-24 23:55 22.73715 114.29610 18627 ft 426 kts 81°
2026-04-24 23:55 22.74050 114.32838 19451 ft 431 kts 81°
2026-04-24 23:56 22.74393 114.36154 20196 ft 439 kts 81°
2026-04-24 23:56 22.74736 114.39486 20952 ft 444 kts 81°
2026-04-24 23:56 22.75081 114.42851 21758 ft 449 kts 81°
2026-04-24 23:56 22.75435 114.46306 22485 ft 455 kts 81°
2026-04-24 23:57 22.75792 114.49796 23219 ft 460 kts 82°
2026-04-24 23:57 22.76148 114.53297 23914 ft 466 kts 82°
2026-04-24 23:57 22.76510 114.56834 24559 ft 473 kts 82°
2026-04-24 23:57 22.76885 114.60489 25169 ft 480 kts 82°
2026-04-24 23:58 22.77261 114.64175 25946 ft 483 kts 82°
2026-04-24 23:58 22.77620 114.67690 26617 ft 488 kts 83°
2026-04-24 23:58 22.78003 114.71459 27178 ft 495 kts 83°
2026-04-24 23:58 22.78393 114.75307 27746 ft 502 kts 83°
2026-04-24 23:59 22.78808 114.79247 28403 ft 507 kts 83°
2026-04-24 23:59 22.79231 114.83206 29024 ft 510 kts 83°
2026-04-24 23:59 22.79645 114.87080 29150 ft 512 kts 83°
2026-04-24 23:59 22.80053 114.90921 29152 ft 507 kts 83°
2026-04-25 00:00 22.80873 114.98669 29151 ft 508 kts 83°
2026-04-25 00:00 22.81678 115.06316 29167 ft 506 kts 83°
2026-04-25 00:01 22.82489 115.14054 29152 ft 505 kts 83°
2026-04-25 00:01 22.83288 115.21722 29154 ft 505 kts 83°
2026-04-25 00:02 22.84086 115.29414 29148 ft 506 kts 83°
2026-04-25 00:02 22.84883 115.37131 29157 ft 506 kts 83°
2026-04-25 00:03 22.85680 115.44891 29161 ft 506 kts 83°
2026-04-25 00:03 22.86467 115.52586 29160 ft 505 kts 84°
2026-04-25 00:04 22.87262 115.60401 29157 ft 504 kts 84°
2026-04-25 00:04 22.88167 115.69340 29148 ft 505 kts 84°
2026-04-25 00:05 22.88813 115.75753 29140 ft 503 kts 84°
2026-04-25 00:05 22.89586 115.83464 29134 ft 504 kts 84°
2026-04-25 00:06 22.90363 115.91169 29139 ft 504 kts 84°
2026-04-25 00:06 22.91161 115.98760 29139 ft 502 kts 84°
2026-04-25 00:07 22.91955 116.06364 29145 ft 503 kts 84°
2026-04-25 00:07 22.92734 116.13907 29139 ft 504 kts 84°
2026-04-25 00:08 22.93514 116.21489 29122 ft 503 kts 84°
2026-04-25 00:08 22.94295 116.29134 29123 ft 505 kts 84°
2026-04-25 00:09 22.95071 116.36758 29149 ft 507 kts 85°
2026-04-25 00:09 22.95470 116.44427 29135 ft 503 kts 88°
2026-04-25 00:10 22.95790 116.52114 29135 ft 506 kts 88°
2026-04-25 00:10 22.96120 116.59744 29153 ft 508 kts 88°
2026-04-25 00:11 22.96460 116.67471 29119 ft 505 kts 89°
2026-04-25 00:11 22.96799 116.75171 29126 ft 509 kts 89°
2026-04-25 00:12 22.97135 116.82800 29129 ft 508 kts 89°
2026-04-25 00:12 22.97471 116.90505 29130 ft 508 kts 89°
2026-04-25 00:13 22.97802 116.98154 29134 ft 509 kts 89°
2026-04-25 00:13 22.98130 117.05807 29133 ft 511 kts 89°
2026-04-25 00:14 22.98455 117.13484 29133 ft 509 kts 89°
2026-04-25 00:14 22.98779 117.21208 29137 ft 510 kts 89°
2026-04-25 00:15 22.99096 117.28866 29143 ft 512 kts 89°
2026-04-25 00:15 22.99413 117.36607 29131 ft 512 kts 89°
2026-04-25 00:16 22.99218 117.44288 29141 ft 510 kts 103°
2026-04-25 00:16 22.97080 117.51518 29141 ft 499 kts 121°
2026-04-25 00:17 22.93246 117.57593 29128 ft 485 kts 137°
2026-04-25 00:17 22.88673 117.62962 29140 ft 482 kts 139°
2026-04-25 00:18 22.84099 117.68261 29123 ft 482 kts 139°
2026-04-25 00:18 22.79517 117.73545 29118 ft 482 kts 140°
2026-04-25 00:19 22.74879 117.78876 29118 ft 483 kts 139°
2026-04-25 00:19 22.70254 117.84182 29127 ft 483 kts 140°
2026-04-25 00:20 22.65633 117.89475 29119 ft 484 kts 140°
2026-04-25 00:20 22.60987 117.94791 29120 ft 483 kts 140°
2026-04-25 00:21 22.56561 118.00253 29121 ft 486 kts 136°
2026-04-25 00:21 22.52223 118.05869 29129 ft 486 kts 136°
2026-04-25 00:22 22.50078 118.08641 29023 ft 474 kts 136°
2026-04-25 00:22 22.48112 118.11549 29017 ft 489 kts 127°
2026-04-25 00:22 22.46507 118.14909 29012 ft 500 kts 117°
2026-04-25 00:22 22.45400 118.18475 29013 ft 508 kts 107°
2026-04-25 00:23 22.44695 118.26059 29015 ft 513 kts 89°
2026-04-25 00:23 22.46112 118.33659 29020 ft 517 kts 69°
2026-04-25 00:24 22.49520 118.40453 29032 ft 515 kts 53°
2026-04-25 00:24 22.53673 118.46866 29028 ft 515 kts 54°
2026-04-25 00:25 22.57645 118.53344 29026 ft 517 kts 55°
2026-04-25 00:25 22.61558 118.59899 29034 ft 519 kts 56°
2026-04-25 00:26 22.65391 118.66460 29019 ft 517 kts 57°
2026-04-25 00:26 22.69215 118.73090 29013 ft 519 kts 57°
2026-04-25 00:27 22.73027 118.79750 29018 ft 521 kts 57°
2026-04-25 00:27 22.76836 118.86438 29012 ft 520 kts 57°
2026-04-25 00:28 22.80624 118.93111 29018 ft 520 kts 57°
2026-04-25 00:28 22.84401 118.99779 29024 ft 522 kts 58°
2026-04-25 00:29 22.88193 119.06488 29012 ft 521 kts 57°
2026-04-25 00:29 22.91956 119.13155 29019 ft 521 kts 57°
2026-04-25 00:30 22.95754 119.19895 29024 ft 521 kts 57°
2026-04-25 00:30 22.99514 119.26578 29019 ft 520 kts 57°
2026-04-25 00:31 23.03311 119.33334 29024 ft 523 kts 58°
2026-04-25 00:31 23.07079 119.40047 29025 ft 522 kts 57°
2026-04-25 00:32 23.10801 119.46690 28583 ft 512 kts 57°
2026-04-25 00:32 23.12686 119.50056 27899 ft 511 kts 57°
2026-04-25 00:32 23.14508 119.53312 27253 ft 511 kts 57°
2026-04-25 00:33 23.16533 119.56435 26649 ft 505 kts 47°
2026-04-25 00:33 23.18940 119.59178 26062 ft 498 kts 38°
2026-04-25 00:33 23.21687 119.61487 25461 ft 489 kts 28°
2026-04-25 00:33 23.24574 119.63390 24885 ft 484 kts 25°
2026-04-25 00:34 23.27439 119.65201 24311 ft 480 kts 25°
2026-04-25 00:34 23.30385 119.67058 23693 ft 477 kts 25°
2026-04-25 00:34 23.33251 119.68864 23111 ft 473 kts 25°
2026-04-25 00:34 23.36076 119.70645 22528 ft 470 kts 25°
2026-04-25 00:35 23.38921 119.72440 21952 ft 466 kts 25°
2026-04-25 00:35 23.41686 119.74184 21378 ft 463 kts 25°
2026-04-25 00:35 23.44531 119.75979 20767 ft 459 kts 26°
2026-04-25 00:35 23.47310 119.77734 20183 ft 456 kts 26°
2026-04-25 00:36 23.49999 119.79487 19708 ft 450 kts 28°
2026-04-25 00:36 23.52638 119.81314 19507 ft 437 kts 28°
2026-04-25 00:36 23.55162 119.83066 19306 ft 425 kts 28°
2026-04-25 00:36 23.57638 119.84781 19078 ft 416 kts 28°
2026-04-25 00:37 23.60083 119.86471 18840 ft 414 kts 28°
2026-04-25 00:37 23.62525 119.88157 18603 ft 415 kts 28°
2026-04-25 00:37 23.64978 119.89850 18356 ft 412 kts 28°
2026-04-25 00:37 23.67382 119.91509 18117 ft 411 kts 28°
2026-04-25 00:38 23.69848 119.93212 17874 ft 409 kts 28°
2026-04-25 00:38 23.72273 119.94887 17628 ft 407 kts 28°
2026-04-25 00:38 23.74643 119.96524 17409 ft 406 kts 28°
2026-04-25 00:38 23.77046 119.98184 17165 ft 405 kts 28°
2026-04-25 00:39 23.79460 119.99853 16928 ft 402 kts 29°
2026-04-25 00:39 23.81832 120.01492 16685 ft 401 kts 28°
2026-04-25 00:39 23.84196 120.03128 16451 ft 399 kts 29°
2026-04-25 00:39 23.86552 120.04758 16202 ft 398 kts 29°
2026-04-25 00:40 23.88882 120.06370 15991 ft 396 kts 29°
2026-04-25 00:40 23.91237 120.08002 15749 ft 397 kts 29°
2026-04-25 00:40 23.93572 120.09620 15551 ft 394 kts 29°
2026-04-25 00:40 23.95895 120.11230 15297 ft 393 kts 29°
2026-04-25 00:41 23.98202 120.12830 15038 ft 392 kts 29°
2026-04-25 00:41 24.00516 120.14436 14838 ft 390 kts 30°
2026-04-25 00:41 24.02839 120.16048 14594 ft 390 kts 29°
2026-04-25 00:41 24.05130 120.17638 14375 ft 388 kts 29°
2026-04-25 00:42 24.07415 120.19225 14175 ft 387 kts 29°
2026-04-25 00:42 24.09676 120.20796 13940 ft 385 kts 29°
2026-04-25 00:42 24.11958 120.22383 13708 ft 384 kts 30°
2026-04-25 00:42 24.14234 120.23966 13462 ft 382 kts 29°
2026-04-25 00:43 24.16491 120.25538 13249 ft 381 kts 30°
2026-04-25 00:43 24.18736 120.27100 13034 ft 380 kts 30°
2026-04-25 00:43 24.21021 120.28692 12817 ft 378 kts 30°
2026-04-25 00:43 24.23280 120.30267 12587 ft 375 kts 30°
2026-04-25 00:44 24.25535 120.31838 12368 ft 375 kts 30°
2026-04-25 00:44 24.27734 120.33372 12131 ft 374 kts 30°
2026-04-25 00:44 24.29967 120.34930 11926 ft 373 kts 30°
2026-04-25 00:44 24.32220 120.36503 11689 ft 372 kts 29°
2026-04-25 00:45 24.34431 120.38047 11435 ft 370 kts 30°
2026-04-25 00:45 24.36639 120.39589 11184 ft 368 kts 30°
2026-04-25 00:45 24.38803 120.41103 10966 ft 361 kts 30°
2026-04-25 00:45 24.40927 120.42588 10765 ft 351 kts 30°
2026-04-25 00:46 24.42897 120.43967 10553 ft 342 kts 30°
2026-04-25 00:46 24.44926 120.45387 10344 ft 333 kts 30°
2026-04-25 00:46 24.48832 120.48122 9974 ft 315 kts 30°
2026-04-25 00:47 24.50678 120.49415 9773 ft 308 kts 29°
2026-04-25 00:47 24.52473 120.50672 9588 ft 300 kts 30°
2026-04-25 00:47 24.54247 120.51915 9391 ft 296 kts 29°
2026-04-25 00:47 24.55983 120.53131 9250 ft 296 kts 30°
2026-04-25 00:48 24.57722 120.54350 9057 ft 296 kts 30°
2026-04-25 00:48 24.59452 120.55565 8875 ft 294 kts 30°
2026-04-25 00:48 24.61183 120.56780 8680 ft 292 kts 30°
2026-04-25 00:48 24.62943 120.58015 8518 ft 292 kts 30°
2026-04-25 00:49 24.64679 120.59235 8330 ft 290 kts 30°
2026-04-25 00:49 24.66388 120.60435 8151 ft 288 kts 30°
2026-04-25 00:49 24.68017 120.61742 7967 ft 290 kts 38°
2026-04-25 00:49 24.69522 120.63198 7795 ft 289 kts 40°
2026-04-25 00:50 24.71023 120.64687 7641 ft 289 kts 40°
2026-04-25 00:50 24.72508 120.66153 7473 ft 287 kts 40°
2026-04-25 00:50 24.73982 120.67603 7307 ft 286 kts 40°
2026-04-25 00:50 24.75489 120.69085 7137 ft 284 kts 41°
2026-04-25 00:51 24.76971 120.70543 6970 ft 285 kts 41°
2026-04-25 00:51 24.78481 120.72028 6773 ft 284 kts 41°
2026-04-25 00:51 24.80006 120.73529 6596 ft 282 kts 41°
2026-04-25 00:51 24.81494 120.74993 6452 ft 282 kts 41°
2026-04-25 00:52 24.83002 120.76479 6277 ft 282 kts 41°
2026-04-25 00:52 24.84484 120.77939 6118 ft 281 kts 41°
2026-04-25 00:52 24.85982 120.79414 5940 ft 279 kts 41°
2026-04-25 00:52 24.87439 120.80850 5769 ft 276 kts 41°
2026-04-25 00:53 24.88896 120.82287 5612 ft 276 kts 41°
2026-04-25 00:53 24.90348 120.83727 5448 ft 274 kts 44°
2026-04-25 00:53 24.91417 120.85536 5258 ft 271 kts 73°
2026-04-25 00:53 24.91708 120.87632 5095 ft 268 kts 89°
2026-04-25 00:54 24.91695 120.89709 4946 ft 267 kts 93°
2026-04-25 00:54 24.91610 120.91772 4800 ft 261 kts 93°
2026-04-25 00:54 24.91516 120.93797 4626 ft 254 kts 93°
2026-04-25 00:54 24.91424 120.95762 4470 ft 246 kts 93°
2026-04-25 00:55 24.91335 120.97646 4401 ft 234 kts 93°
2026-04-25 00:55 24.91236 120.99989 4377 ft 219 kts 88°
2026-04-25 00:55 24.91425 121.01083 4370 ft 216 kts 66°
2026-04-25 00:55 24.92208 121.02502 4377 ft 215 kts 53°
2026-04-25 00:56 24.93146 121.03802 4251 ft 219 kts 50°
2026-04-25 00:56 24.94152 121.05096 3967 ft 218 kts 49°
2026-04-25 00:56 24.95168 121.06370 3678 ft 218 kts 49°
2026-04-25 00:56 24.96188 121.07642 3392 ft 217 kts 49°
2026-04-25 00:57 24.97204 121.08910 3104 ft 216 kts 49°
2026-04-25 00:57 24.98199 121.10154 2816 ft 215 kts 49°
2026-04-25 00:57 24.99178 121.11384 2531 ft 199 kts 49°
2026-04-25 00:57 25.00070 121.12505 2283 ft 186 kts 49°
2026-04-25 00:58 25.00894 121.13544 2044 ft 171 kts 49°
2026-04-25 00:58 25.01655 121.14502 1823 ft 149 kts 50°
2026-04-25 00:58 25.02315 121.15338 1626 ft 138 kts 50°
2026-04-25 00:58 25.02955 121.16144 1440 ft 135 kts 50°
2026-04-25 00:59 25.03597 121.16951 1237 ft 137 kts 50°
2026-04-25 00:59 25.04241 121.17774 1010 ft 139 kts 51°
2026-04-25 00:59 25.04887 121.18599 849 ft 139 kts 50°
2026-04-25 00:59 25.05544 121.19395 649 ft 141 kts 50°
2026-04-25 01:00 25.06207 121.20225 482 ft 143 kts 50°
2026-04-25 01:00 25.06874 121.21069 297 ft 143 kts 50°
2026-04-25 01:00 25.07532 121.21906 133 ft 141 kts 51°
2026-04-25 01:00 25.08105 121.22637 121 ft 102 kts 49°
2026-04-25 01:01 25.08474 121.23106 121 ft 57 kts 50°
2026-04-25 01:01 25.08683 121.23394 121 ft 34 kts 66°
2026-04-25 01:01 25.08726 121.23570 121 ft 15 kts 77°
2026-04-25 01:01 25.08716 121.23657 121 ft 9 kts 145°
2026-04-25 01:02 25.08652 121.23642 121 ft 10 kts 223°
2026-04-25 01:02 25.08598 121.23573 121 ft 12 kts 229°
2026-04-25 01:02 25.08536 121.23494 121 ft 12 kts 229°
2026-04-25 01:02 25.08479 121.23463 121 ft 9 kts 161°
2026-04-25 01:03 25.08410 121.23485 121 ft 10 kts 197°
2026-04-25 01:03 25.08359 121.23438 121 ft 9 kts 229°
2026-04-25 01:03 25.08312 121.23377 121 ft 11 kts 230°
2026-04-25 01:03 25.08261 121.23311 121 ft 9 kts 229°
2026-04-25 01:04 25.08223 121.23270 121 ft 5 kts 201°
2026-04-25 01:04 25.08184 121.23283 121 ft 6 kts 146°
2026-04-25 01:04 25.08156 121.23307 121 ft 3 kts 139°
2026-04-25 01:04 25.08140 121.23322 121 ft 1 kts 140°
2026-04-25 01:05 25.08135 121.23327 121 ft 0 kts 140°